This is the latest recevied weather packets stored in our database for station/object PY2UEP-1. If no packets are shown the sender has not sent any weather packets the latest 10 day(s).
| Time | Temp. | Humidity | Pressure | Rain* | Wind** | Luminosity | Snow |
|---|---|---|---|---|---|---|---|
| 1777587038 | 22.78° C | 84% | 1017.8 hPa | 12.95 mm | - | - | - |
| 1777586738 | 22.78° C | 84% | 1017.8 hPa | 12.95 mm | - | - | - |
| 1777586438 | 22.78° C | 83% | 1017.7 hPa | 12.95 mm | - | - | - |
| 1777586138 | 22.78° C | 83% | 1017.7 hPa | 12.95 mm | - | - | - |
| 1777585838 | 22.78° C | 84% | 1017.6 hPa | 12.95 mm | - | - | - |
| 1777585538 | 22.78° C | 84% | 1017.4 hPa | 12.95 mm | - | - | - |
| 1777585238 | 23.33° C | 83% | 1017.4 hPa | 12.95 mm | - | - | - |
| 1777584938 | 22.78° C | 83% | 1017.4 hPa | 12.95 mm | - | - | - |
| 1777584638 | 22.78° C | 83% | 1017.5 hPa | 12.95 mm | - | - | - |
| 1777584338 | 22.78° C | 83% | 1017.4 hPa | 12.95 mm | - | - | - |
| 1777584038 | 23.33° C | 83% | 1017.2 hPa | 12.95 mm | - | - | - |
| 1777583738 | 23.33° C | 82% | 1017.2 hPa | 12.95 mm | - | - | - |
| 1777583438 | 23.33° C | 82% | 1017.2 hPa | 12.95 mm | - | - | - |
| 1777583138 | 23.33° C | 81% | 1017.2 hPa | 12.95 mm | - | - | - |
| 1777582838 | 23.33° C | 81% | 1017.2 hPa | 12.95 mm | - | - | - |
| 1777582538 | 23.89° C | 80% | 1017.2 hPa | 12.95 mm | - | - | - |
| 1777582238 | 23.89° C | 79% | 1017.1 hPa | 12.95 mm | - | - | - |
| 1777581938 | 24.44° C | 78% | 1017.1 hPa | 12.95 mm | - | - | - |
| 1777581638 | 24.44° C | 78% | 1017.1 hPa | 12.95 mm | - | - | - |
| 1777581338 | 24.44° C | 78% | 1017 hPa | 12.95 mm | - | - | - |
| 1777581038 | 25° C | 77% | 1017 hPa | 12.95 mm | - | - | - |
| 1777580738 | 25° C | 76% | 1017 hPa | 12.95 mm | - | - | - |
| 1777580438 | 25° C | 75% | 1017.1 hPa | 12.95 mm | - | - | - |
| 1777580138 | 25.56° C | 73% | 1016.9 hPa | 12.95 mm | - | - | - |
| 1777579838 | 25.56° C | 72% | 1016.9 hPa | 12.95 mm | - | - | - |
* Rain since midnight (hover to see other rain measurements)
** Current wind speed in m/s (hover to see current wind gust speed)